When you browse on this site, cookies collect data to enhance your experience and personalize the content and advertising you see.
Visit our Privacy Policy to learn more. By continuing to use the site, you agree to this use of cookies and data.
  • In Österreich
  • Länderverzeichnis
  • Für 7 Tage
  • Wassertemperatur
  • Wetterkarte
  • News
  • Widgets
  • user-avatar
    Anmelden

    Stündliche Wetter Kotschabamba

    Heute, 21 Februar, Freitag

    Zeit Temperatur Niederschläge Wind Luftdruck Luftfeuchtigkeit
    00:00 +14°C° 0 mm 1 m/S 555 mmHg 92%
    01:00 +13°C° 0 mm 0 m/S 555 mmHg 91%
    02:00 +13°C° 0 mm 0 m/S 554 mmHg 91%
    09:00 +15°C° 0.2 mm 1 m/S 556 mmHg 87%
    10:00 +16°C° 0.2 mm 1 m/S 556 mmHg 84%
    11:00 +18°C° 0.2 mm 1 m/S 557 mmHg 81%
    12:00 +18°C° 1 mm 1 m/S 556 mmHg 80%
    13:00 +19°C° 1 mm 1 m/S 556 mmHg 78%
    14:00 +19°C° 1 mm 1 m/S 555 mmHg 77%
    15:00 +19°C° 1 mm 1 m/S 555 mmHg 78%
    16:00 +17°C° 1 mm 2 m/S 554 mmHg 79%
    17:00 +17°C° 1 mm 2 m/S 554 mmHg 80%
    18:00 +16°C° 1.4 mm 1 m/S 555 mmHg 82%
    19:00 +16°C° 1.4 mm 1 m/S 555 mmHg 85%
    20:00 +15°C° 1.4 mm 0 m/S 555 mmHg 87%
    21:00 +16°C° 0.7 mm 1 m/S 556 mmHg 88%
    22:00 +15°C° 0.7 mm 1 m/S 556 mmHg 89%
    23:00 +15°C° 0.7 mm 1 m/S 557 mmHg 91%

    Morgen, 22 Februar, Samstag

    Zeit Temperatur Niederschläge Wind Luftdruck Luftfeuchtigkeit
    00:00 +15°C° 0.6 mm 1 m/S 556 mmHg 91%
    01:00 +15°C° 0.6 mm 1 m/S 556 mmHg 92%
    02:00 +14°C° 0.6 mm 1 m/S 555 mmHg 92%
    03:00 +14°C° 0.3 mm 1 m/S 555 mmHg 92%
    04:00 +14°C° 0.3 mm 1 m/S 555 mmHg 92%
    05:00 +14°C° 0.3 mm 1 m/S 555 mmHg 92%
    06:00 +14°C° 0.2 mm 1 m/S 555 mmHg 92%
    07:00 +14°C° 0.2 mm 1 m/S 556 mmHg 91%
    08:00 +14°C° 0.2 mm 1 m/S 556 mmHg 91%
    09:00 +15°C° 0.2 mm 1 m/S 556 mmHg 89%
    10:00 +15°C° 0.2 mm 1 m/S 557 mmHg 86%
    11:00 +16°C° 0.2 mm 1 m/S 557 mmHg 83%
    12:00 +18°C° 0.3 mm 1 m/S 557 mmHg 79%
    13:00 +19°C° 0.3 mm 1 m/S 557 mmHg 74%
    14:00 +20°C° 0.3 mm 1 m/S 557 mmHg 69%
    15:00 +19°C° 0.3 mm 2 m/S 556 mmHg 69%
    16:00 +19°C° 0.3 mm 2 m/S 556 mmHg 69%
    17:00 +19°C° 0.3 mm 3 m/S 556 mmHg 69%
    18:00 +18°C° 0.2 mm 3 m/S 556 mmHg 74%
    19:00 +17°C° 0.2 mm 2 m/S 555 mmHg 79%
    20:00 +16°C° 0.2 mm 2 m/S 555 mmHg 83%
    21:00 +16°C° 0.2 mm 2 m/S 556 mmHg 84%
    22:00 +15°C° 0.2 mm 1 m/S 556 mmHg 86%
    23:00 +15°C° 0.2 mm 1 m/S 556 mmHg 87%

    übermorgen, 23 Februar, Sonntag

    Zeit Temperatur Niederschläge Wind Luftdruck Luftfeuchtigkeit
    00:00 +15°C° 0.2 mm 1 m/S 556 mmHg 88%
    01:00 +14°C° 0.2 mm 1 m/S 556 mmHg 88%
    02:00 +14°C° 0.2 mm 1 m/S 555 mmHg 89%
    03:00 +14°C° 0.1 mm 1 m/S 555 mmHg 89%
    04:00 +14°C° 0.1 mm 1 m/S 555 mmHg 89%
    05:00 +13°C° 0.1 mm 0 m/S 555 mmHg 89%
    06:00 +13°C° 0 mm 0 m/S 555 mmHg 88%
    07:00 +13°C° 0 mm 0 m/S 555 mmHg 87%
    08:00 +14°C° 0 mm 0 m/S 556 mmHg 85%
    09:00 +15°C° 0 mm 0 m/S 556 mmHg 81%
    10:00 +18°C° 0 mm 1 m/S 557 mmHg 76%
    11:00 +19°C° 0 mm 1 m/S 557 mmHg 71%
    12:00 +20°C° 0.2 mm 1 m/S 557 mmHg 69%
    13:00 +21°C° 0.2 mm 1 m/S 557 mmHg 66%
    14:00 +21°C° 0.2 mm 2 m/S 557 mmHg 64%
    15:00 +20°C° 0.1 mm 2 m/S 556 mmHg 65%
    16:00 +20°C° 0.1 mm 2 m/S 555 mmHg 67%
    17:00 +20°C° 0.1 mm 2 m/S 555 mmHg 68%
    18:00 +19°C° 0.1 mm 2 m/S 554 mmHg 73%
    19:00 +18°C° 0.1 mm 2 m/S 554 mmHg 77%
    20:00 +17°C° 0.1 mm 2 m/S 554 mmHg 82%
    21:00 +18°C° 0 mm 1 m/S 554 mmHg 83%
    22:00 +16°C° 0 mm 1 m/S 555 mmHg 85%
    23:00 +16°C° 0 mm 1 m/S 555 mmHg 86%

    24 Februar, Montag

    Zeit Temperatur Niederschläge Wind Luftdruck Luftfeuchtigkeit
    00:00 +16°C° 0 mm 1 m/S 555 mmHg 86%
    01:00 +16°C° 0 mm 1 m/S 555 mmHg 86%
    02:00 +16°C° 0 mm 1 m/S 554 mmHg 86%
    03:00 +16°C° 0.1 mm 1 m/S 554 mmHg 85%
    04:00 +15°C° 0.1 mm 0 m/S 554 mmHg 85%
    05:00 +15°C° 0.1 mm 0 m/S 554 mmHg 85%
    06:00 +15°C° 0 mm 0 m/S 554 mmHg 83%
    07:00 +15°C° 0 mm 0 m/S 555 mmHg 82%
    08:00 +18°C° 0 mm 1 m/S 555 mmHg 80%
    09:00 +19°C° 0.1 mm 1 m/S 556 mmHg 75%
    10:00 +20°C° 0.1 mm 1 m/S 556 mmHg 70%
    11:00 +22°C° 0.1 mm 1 m/S 556 mmHg 65%
    12:00 +22°C° 0.4 mm 1 m/S 556 mmHg 64%
    13:00 +23°C° 0.4 mm 2 m/S 556 mmHg 62%
    14:00 +24°C° 0.4 mm 2 m/S 555 mmHg 60%
    15:00 +23°C° 0.1 mm 2 m/S 555 mmHg 61%
    16:00 +23°C° 0.1 mm 2 m/S 554 mmHg 62%
    17:00 +23°C° 0.1 mm 2 m/S 553 mmHg 63%
    18:00 +20°C° 0.1 mm 2 m/S 553 mmHg 69%
    19:00 +19°C° 0.1 mm 2 m/S 553 mmHg 74%
    20:00 +19°C° 0.1 mm 1 m/S 553 mmHg 79%
    21:00 +19°C° 0.2 mm 1 m/S 553 mmHg 80%
    22:00 +18°C° 0.2 mm 1 m/S 554 mmHg 82%
    23:00 +18°C° 0.2 mm 1 m/S 554 mmHg 83%

    25 Februar, Dienstag

    Zeit Temperatur Niederschläge Wind Luftdruck Luftfeuchtigkeit
    00:00 +18°C° 0.6 mm 1 m/S 554 mmHg 84%
    01:00 +16°C° 0.6 mm 2 m/S 553 mmHg 85%
    02:00 +16°C° 0.6 mm 2 m/S 553 mmHg 86%
    03:00 +16°C° 0.1 mm 2 m/S 553 mmHg 86%
    04:00 +16°C° 0.1 mm 1 m/S 553 mmHg 86%
    05:00 +15°C° 0.1 mm 1 m/S 552 mmHg 86%
    06:00 +16°C° 0 mm 1 m/S 553 mmHg 83%
    07:00 +18°C° 0 mm 1 m/S 554 mmHg 79%
    08:00 +18°C° 0 mm 1 m/S 555 mmHg 75%
    09:00 +20°C° 0.1 mm 1 m/S 555 mmHg 70%
    10:00 +22°C° 0.1 mm 1 m/S 556 mmHg 65%
    11:00 +23°C° 0.1 mm 1 m/S 556 mmHg 60%
    12:00 +24°C° 0.4 mm 2 m/S 556 mmHg 59%
    13:00 +24°C° 0.4 mm 2 m/S 556 mmHg 59%
    14:00 +25°C° 0.4 mm 2 m/S 555 mmHg 58%
    15:00 +24°C° 0.4 mm 3 m/S 555 mmHg 59%
    16:00 +24°C° 0.4 mm 3 m/S 554 mmHg 60%
    17:00 +24°C° 0.4 mm 3 m/S 554 mmHg 61%
    18:00 +21°C° 0.3 mm 3 m/S 553 mmHg 67%
    19:00 +20°C° 0.3 mm 3 m/S 553 mmHg 74%
    20:00 +18°C° 0.3 mm 3 m/S 553 mmHg 80%
    21:00 +18°C° 0.4 mm 3 m/S 554 mmHg 82%
    22:00 +17°C° 0.4 mm 2 m/S 554 mmHg 83%
    23:00 +17°C° 0.4 mm 2 m/S 555 mmHg 85%

    26 Februar, Mittwoch

    Zeit Temperatur Niederschläge Wind Luftdruck Luftfeuchtigkeit
    00:00 +17°C° 1 mm 2 m/S 554 mmHg 85%
    01:00 +18°C° 1 mm 1 m/S 554 mmHg 85%
    02:00 +18°C° 1 mm 1 m/S 554 mmHg 85%
    03:00 +16°C° 0.5 mm 1 m/S 554 mmHg 86%
    04:00 +15°C° 0.5 mm 1 m/S 553 mmHg 87%
    05:00 +15°C° 0.5 mm 1 m/S 553 mmHg 88%
    06:00 +16°C° 0 mm 1 m/S 553 mmHg 85%
    07:00 +16°C° 0 mm 1 m/S 554 mmHg 82%
    08:00 +16°C° 0 mm 0 m/S 555 mmHg 78%
    09:00 +19°C° 0.1 mm 1 m/S 555 mmHg 74%
    10:00 +20°C° 0.1 mm 1 m/S 556 mmHg 69%
    11:00 +22°C° 0.1 mm 1 m/S 556 mmHg 65%
    12:00 +22°C° 0.7 mm 1 m/S 556 mmHg 63%
    13:00 +23°C° 0.7 mm 1 m/S 556 mmHg 62%
    14:00 +24°C° 0.7 mm 1 m/S 555 mmHg 60%
    15:00 +23°C° 0.6 mm 2 m/S 555 mmHg 61%
    16:00 +23°C° 0.6 mm 2 m/S 554 mmHg 62%
    17:00 +22°C° 0.6 mm 3 m/S 554 mmHg 64%
    18:00 +20°C° 1.3 mm 2 m/S 554 mmHg 72%
    19:00 +18°C° 1.3 mm 2 m/S 553 mmHg 81%
    20:00 +18°C° 1.3 mm 1 m/S 553 mmHg 89%
    21:00 +16°C° 1.5 mm 1 m/S 554 mmHg 89%
    22:00 +16°C° 1.5 mm 1 m/S 554 mmHg 89%
    23:00 +16°C° 1.5 mm 1 m/S 555 mmHg 88%
    Mehr zeigen